RH
2 2 1 2 3 2 2 2 2 4 6 7 8 9 10 7 6 9 10 11 11 10 10 11 12 12 11 11 11 11 12 12 12
4 2 1 1 3 2 2 2 2 3 5 6 5 7 9 10 10 8 8 10 9 9 9 10 12 12 11 12 12 12 12 12 13
32 3 2 1 2 2 2 2 2 2 3 4 3 3 4 7 9 10 10 9 9 8 8 9 11 10 11 12 13 12 11 12 14
42 36 3 2 1 1 2 2 2 2 3 3 2 2 3 3 4 5 7 7 7 7 7 7 8 8 9 10 10 14 12 13 14
64 51 33 3 2 1 2 2 2 2 2 2 2 2 3 3 4 5 4 4 4 4 4 5 5 6 6 8 9 15 13 13 13
59 67 61 34 3 2 2 2 2 2 2 2 2 2 3 3 3 2 2 2 2 3 3 3 3 4 5 6 7 10 13 12 12
45 63 62 54 36 6 2 2 2 2 2 2 2 2 2 2 2 2 2 2 2 2 2 3 3 3 4 5 5 7 9 11 12
55 43 38 41 24 30 8 2 2 2 2 2 2 2 2 2 2 2 2 2 2 2 2 3 3 4 4 5 5 5 7 11 13
76 36 25 22 19 12 10 7 2 2 2 2 2 2 2 2 2 2 2 2 2 2 2 3 3 4 4 5 6 5 5 8 12
84 72 26 18 21 20 16 8 7 2 2 2 2 2 2 2 2 3 3 2 2 2 2 3 3 4 5 6 7 7 6 6 11
94 77 66 46 16 18 20 20 11 11 3 2 2 2 2 2 2 3 3 3 2 2 2 2 3 3 5 7 9 10 8 8 10
97 94 76 71 74 18 16 23 23 14 19 7 2 2 2 2 2 3 3 3 3 3 3 3 3 3 4 8 10 11 11 9 9
96 96 94 88 90 87 22 17 25 21 11 9 8 3 3 2 2 3 3 3 3 3 3 3 3 3 4 7 12 13 13 13 13
88 97 97 96 91 94 63 16 14 17 21 16 6 6 4 3 3 3 3 3 3 3 3 3 3 3 4 10 14 14 14 14 13
41 87 96 96 96 95 94 66 25 14 14 20 19 8 4 3 3 3 3 3 3 3 3 3 3 3 5 13 16 15 14 15 17
13 45 72 97 97 96 97 94 69 40 18 14 17 20 13 5 4 4 3 3 3 3 3 3 3 5 10 17 18 14 14 16 19
28 23 42 90 85 94 97 96 99 72 51 27 15 15 19 17 9 5 4 4 4 4 4 5 7 11 16 19 18 13 14 16 21
4 18 28 97 94 97 95 97 96 86 73 59 38 17 14 18 18 14 11 10 9 9 10 12 14 17 19 19 17 13 13 17 22
7 4 10 34 31 98 97 96 96 96 89 73 59 50 27 16 16 18 17 15 15 16 16 16 18 19 19 17 16 13 13 18 25
13 10 7 5 28 48 95 97 96 97 97 93 96 86 62 46 20 17 18 19 19 19 19 18 19 19 17 16 14 12 13 17 27
Wind_Speed
16 16 19 24 26 26 24 23 22 20 17 15 14 13 11 10 10 8 6 3 1 2 3 4 6 8 10 12 13 14 15 14 13
16 17 20 25 27 27 26 24 23 22 19 17 16 15 13 11 10 9 7 6 4 2 3 3 4 5 7 10 12 12 12 13 12
18 19 20 25 28 28 28 27 25 23 22 20 18 17 16 14 13 10 9 8 7 5 5 4 3 3 4 5 8 10 11 11 10
20 21 22 24 29 31 30 29 27 25 24 22 20 18 17 16 15 13 12 10 9 8 7 6 5 4 4 4 6 9 9 10 9
24 25 24 25 27 31 32 31 30 29 27 24 22 21 20 19 17 16 14 13 11 10 10 9 8 5 6 5 4 6 7 8 9
28 28 27 27 27 30 34 34 33 32 30 28 24 23 22 21 19 18 16 15 14 13 12 11 10 8 8 7 7 7 8 8 8
31 30 30 30 30 31 34 37 36 35 34 32 29 27 25 24 22 21 18 17 15 15 14 13 12 10 10 9 9 9 8 9 10
35 35 33 33 32 33 33 36 38 39 37 35 33 31 29 27 25 24 22 20 18 16 16 16 14 13 13 11 11 11 11 10 11
40 40 38 36 36 34 34 35 37 40 41 39 37 35 33 32 30 27 25 23 20 19 18 19 17 16 15 14 13 13 13 13 13
42 42 43 40 39 37 35 34 38 39 41 41 41 39 38 36 34 32 29 27 24 22 21 21 20 19 18 17 16 16 15 15 15
47 44 44 42 43 43 40 38 36 38 41 41 41 42 41 39 38 36 33 31 28 25 24 23 23 23 21 20 19 18 17 17 18
41 51 45 45 43 46 44 42 40 36 38 43 42 42 43 42 40 39 37 34 32 30 27 26 26 26 24 22 20 19 19 19 20
36 34 54 51 50 47 47 45 44 40 38 39 43 43 43 43 42 40 39 36 35 33 31 29 28 28 27 24 22 21 22 21 22
48 52 52 59 58 55 50 48 48 44 42 40 40 44 44 44 44 42 40 39 38 36 35 33 31 30 29 26 25 24 23 22 23
58 59 46 42 46 63 56 51 50 49 47 45 43 42 43 45 43 43 43 41 39 38 36 36 34 31 30 28 28 26 26 24 24
63 57 59 55 48 54 59 58 52 50 49 49 47 45 43 42 43 44 43 42 41 40 38 37 34 32 31 30 30 28 28 27 26
65 63 55 66 60 55 59 62 56 56 53 51 52 49 47 45 43 42 40 39 39 38 36 36 34 33 33 32 32 29 30 30 28
69 66 65 51 54 63 55 59 60 58 59 56 54 53 51 48 47 44 43 41 40 39 37 37 37 36 36 34 33 32 32 31 31
77 74 68 71 72 48 55 64 57 55 60 60 54 54 53 52 51 49 47 46 44 43 41 40 41 39 37 35 36 35 34 33 33
81 80 78 73 73 76 61 52 59 55 60 53 66 68 58 53 54 51 50 49 47 46 44 44 44 42 40 38 37 36 37 36 35
Wind_Direction
204 196 197 201 195 194 194 192 191 189 189 185 183 178 180 191 200 205 207 212 231 4 19 25 45 51 46 40 37 42 44 47 45
216 203 199 202 202 200 198 199 196 193 195 199 197 191 188 196 203 209 217 231 240 255 297 327 15 34 37 41 41 33 36 42 44
223 214 206 203 207 207 204 202 202 199 200 205 206 203 199 203 208 211 222 234 243 247 258 281 315 351 14 20 30 23 25 35 35
227 221 211 208 208 211 211 207 206 205 206 210 210 207 206 208 213 215 222 232 241 247 254 264 273 299 314 337 354 17 13 19 27
229 226 223 212 211 213 214 214 211 210 211 214 212 213 210 212 215 220 216 223 229 238 248 254 263 275 290 303 316 345 2 3 4
227 229 229 227 216 215 216 217 217 215 215 216 217 217 217 215 215 217 214 218 224 229 238 245 254 261 272 284 289 299 321 334 346
230 230 231 231 227 220 220 217 218 220 219 219 217 219 220 220 217 219 220 221 223 230 236 240 247 252 259 264 273 281 293 313 323
232 232 229 232 232 230 225 223 220 222 223 222 220 219 221 222 224 225 226 226 228 231 236 239 243 248 253 260 267 271 277 290 302
232 235 234 234 236 234 233 231 229 225 225 225 224 222 222 224 226 228 232 232 231 234 237 242 241 246 251 255 262 265 270 275 288
231 232 235 234 237 237 234 233 231 232 229 228 228 227 225 226 228 230 232 235 234 236 239 243 245 245 249 253 257 263 266 269 276
233 231 233 235 234 237 237 234 233 231 232 231 229 231 230 227 228 231 233 237 239 238 241 244 245 245 247 250 255 262 267 269 272
239 236 231 235 236 235 236 237 235 233 233 232 232 231 232 232 229 231 235 237 241 243 242 246 247 246 245 251 257 262 267 269 272
237 241 232 231 234 237 235 235 236 234 235 235 232 231 232 234 234 231 234 236 241 245 246 247 248 249 246 248 255 259 265 270 274
241 244 235 233 231 236 236 234 236 235 235 237 237 235 233 233 235 237 236 237 239 242 247 248 249 248 246 247 252 258 262 267 272
241 244 240 222 239 234 235 236 234 234 234 234 237 239 239 237 235 236 238 239 241 241 244 247 249 242 242 246 253 256 260 264 268
247 244 244 240 250 239 230 234 233 233 234 235 235 236 238 240 238 236 237 238 240 243 243 243 241 238 239 245 252 256 259 262 267
246 245 243 242 249 250 239 232 231 232 232 233 235 235 236 237 239 238 237 235 235 235 235 235 235 237 241 246 251 256 258 262 268
243 244 239 235 247 245 249 237 233 234 235 234 234 235 236 237 237 236 236 236 235 233 233 235 236 239 241 247 254 255 257 262 268
241 242 241 239 241 241 238 240 237 238 239 236 233 236 236 236 236 236 235 234 234 235 236 238 241 242 245 247 253 257 257 261 266
241 240 240 239 239 237 241 240 238 243 241 246 241 236 234 237 237 237 237 236 235 236 237 239 242 244 246 249 251 254 258 260 265